When you browse on this site, cookies collect data to enhance your experience and personalize the content and advertising you see.
Visit our Privacy Policy to learn more. By continuing to use the site, you agree to this use of cookies and data.

Hourly Weather Salzburg

Today, 13 July, Monday

Time Temperature Precipitation Wind Pressure Humidity
00:00 +5°C° 0 mm 1 mps 630 mmHg 90%
01:00 +4°C° 0 mm 1 mps 630 mmHg 90%
02:00 +4°C° 0 mm 1 mps 630 mmHg 90%
03:00 +4°C° 0 mm 1 mps 629 mmHg 91%
04:00 +4°C° 0 mm 1 mps 629 mmHg 91%
05:00 +6°C° 0 mm 1 mps 630 mmHg 84%
06:00 +8°C° 0 mm 1 mps 631 mmHg 76%
07:00 +10°C° 0 mm 1 mps 631 mmHg 69%
08:00 +12°C° 0 mm 1 mps 632 mmHg 61%
09:00 +14°C° 0 mm 1 mps 632 mmHg 53%
10:00 +16°C° 0 mm 1 mps 633 mmHg 45%
11:00 +18°C° 0 mm 1 mps 633 mmHg 42%
12:00 +18°C° 0 mm 2 mps 633 mmHg 39%
13:00 +18°C° 0 mm 2 mps 633 mmHg 36%
14:00 +18°C° 0 mm 2 mps 632 mmHg 38%
15:00 +18°C° 0 mm 2 mps 632 mmHg 41%
16:00 +17°C° 0 mm 2 mps 631 mmHg 44%
17:00 +15°C° 0 mm 2 mps 630 mmHg 56%
18:00 +14°C° 0 mm 1 mps 630 mmHg 68%
19:00 +12°C° 0 mm 1 mps 629 mmHg 79%
20:00 +11°C° 0 mm 1 mps 629 mmHg 84%
21:00 +9°C° 0 mm 1 mps 628 mmHg 88%
22:00 +6°C° 0 mm 0 mps 628 mmHg 93%
23:00 +6°C° 0 mm 0 mps 628 mmHg 93%

Tomorrow, 14 July, Tuesday

Time Temperature Precipitation Wind Pressure Humidity
00:00 +7°C° 0 mm 1 mps 628 mmHg 93%
01:00 +6°C° 0 mm 1 mps 627 mmHg 93%
02:00 +6°C° 0 mm 1 mps 627 mmHg 93%
03:00 +6°C° 0 mm 1 mps 627 mmHg 93%
04:00 +6°C° 0 mm 1 mps 626 mmHg 94%
05:00 +6°C° 0 mm 0 mps 627 mmHg 88%
06:00 +8°C° 0 mm 0 mps 628 mmHg 83%
07:00 +10°C° 0 mm 0 mps 628 mmHg 77%
08:00 +12°C° 0 mm 0 mps 629 mmHg 69%
09:00 +15°C° 0 mm 1 mps 629 mmHg 60%
10:00 +18°C° 0 mm 1 mps 630 mmHg 52%
11:00 +18°C° 0.1 mm 1 mps 629 mmHg 52%
12:00 +17°C° 0.1 mm 2 mps 629 mmHg 51%
13:00 +17°C° 0.1 mm 2 mps 629 mmHg 51%
14:00 +16°C° 0.6 mm 2 mps 628 mmHg 60%
15:00 +16°C° 0.6 mm 1 mps 628 mmHg 68%
16:00 +15°C° 0.6 mm 1 mps 627 mmHg 76%
17:00 +13°C° 0.7 mm 1 mps 627 mmHg 80%
18:00 +12°C° 0.7 mm 1 mps 627 mmHg 85%
19:00 +11°C° 0.7 mm 1 mps 626 mmHg 89%
20:00 +10°C° 0 mm 1 mps 626 mmHg 90%
21:00 +9°C° 0 mm 1 mps 625 mmHg 91%
22:00 +8°C° 0 mm 1 mps 625 mmHg 92%
23:00 +8°C° 0 mm 1 mps 625 mmHg 91%

Day after tomorrow, 15 July, Wednesday

Time Temperature Precipitation Wind Pressure Humidity
00:00 +8°C° 0 mm 1 mps 625 mmHg 90%
01:00 +7°C° 0 mm 1 mps 625 mmHg 89%
02:00 +7°C° 0 mm 1 mps 625 mmHg 89%
03:00 +8°C° 0 mm 1 mps 625 mmHg 89%
04:00 +8°C° 0 mm 1 mps 625 mmHg 88%
05:00 +8°C° 0.2 mm 1 mps 625 mmHg 89%
06:00 +9°C° 0.2 mm 1 mps 625 mmHg 90%
07:00 +9°C° 0.2 mm 1 mps 625 mmHg 91%
08:00 +9°C° 0.8 mm 1 mps 625 mmHg 92%
09:00 +10°C° 0.8 mm 1 mps 625 mmHg 93%
10:00 +10°C° 0.8 mm 1 mps 625 mmHg 95%
11:00 +10°C° 0.6 mm 1 mps 625 mmHg 94%
12:00 +10°C° 0.6 mm 1 mps 625 mmHg 94%
13:00 +9°C° 0.6 mm 0 mps 625 mmHg 93%
14:00 +9°C° 0.4 mm 0 mps 626 mmHg 94%
15:00 +9°C° 0.4 mm 0 mps 626 mmHg 95%
16:00 +9°C° 0.4 mm 0 mps 626 mmHg 96%
17:00 +9°C° 0.6 mm 0 mps 626 mmHg 96%
18:00 +8°C° 0.6 mm 0 mps 626 mmHg 97%
19:00 +9°C° 0.6 mm 1 mps 626 mmHg 98%
20:00 +8°C° 0.2 mm 1 mps 626 mmHg 97%
21:00 +7°C° 0.2 mm 1 mps 626 mmHg 96%
22:00 +7°C° 0.2 mm 1 mps 625 mmHg 96%
23:00 +7°C° 0 mm 1 mps 625 mmHg 95%

16 July, Thursday

Time Temperature Precipitation Wind Pressure Humidity
00:00 +6°C° 0 mm 1 mps 625 mmHg 95%
01:00 +5°C° 0 mm 0 mps 625 mmHg 95%
02:00 +5°C° 0.1 mm 0 mps 625 mmHg 95%
03:00 +5°C° 0.1 mm 0 mps 625 mmHg 95%
04:00 +4°C° 0.1 mm 0 mps 625 mmHg 96%
05:00 +5°C° 0.6 mm 0 mps 625 mmHg 96%
06:00 +6°C° 0.6 mm 0 mps 625 mmHg 96%
07:00 +7°C° 0.6 mm 1 mps 626 mmHg 97%
08:00 +7°C° 1.4 mm 1 mps 626 mmHg 97%
09:00 +7°C° 1.4 mm 1 mps 626 mmHg 97%
10:00 +7°C° 1.4 mm 1 mps 626 mmHg 98%
11:00 +8°C° 0.9 mm 1 mps 626 mmHg 96%
12:00 +8°C° 0.9 mm 1 mps 626 mmHg 94%
13:00 +8°C° 0.9 mm 1 mps 627 mmHg 93%
14:00 +9°C° 0.2 mm 1 mps 627 mmHg 86%
15:00 +11°C° 0.2 mm 1 mps 628 mmHg 80%
16:00 +12°C° 0.2 mm 1 mps 628 mmHg 74%
17:00 +11°C° 0.4 mm 1 mps 628 mmHg 80%
18:00 +10°C° 0.4 mm 1 mps 627 mmHg 87%
19:00 +9°C° 0.4 mm 1 mps 627 mmHg 93%
20:00 +8°C° 0.2 mm 1 mps 627 mmHg 93%
21:00 +7°C° 0.2 mm 1 mps 627 mmHg 94%
22:00 +7°C° 0.2 mm 1 mps 627 mmHg 94%
23:00 +6°C° 0.2 mm 1 mps 627 mmHg 95%

17 July, Friday

Time Temperature Precipitation Wind Pressure Humidity
00:00 +6°C° 0.2 mm 1 mps 627 mmHg 95%
01:00 +6°C° 0.2 mm 1 mps 626 mmHg 96%
02:00 +6°C° 0.4 mm 1 mps 626 mmHg 96%
03:00 +6°C° 0.4 mm 1 mps 626 mmHg 97%
04:00 +6°C° 0.4 mm 1 mps 626 mmHg 97%
05:00 +6°C° 0.4 mm 1 mps 626 mmHg 96%
06:00 +6°C° 0.4 mm 1 mps 627 mmHg 96%
07:00 +7°C° 0.4 mm 1 mps 627 mmHg 95%
08:00 +7°C° 0.8 mm 1 mps 627 mmHg 95%
09:00 +7°C° 0.8 mm 1 mps 627 mmHg 95%
10:00 +7°C° 0.8 mm 1 mps 627 mmHg 95%
11:00 +8°C° 0.8 mm 1 mps 627 mmHg 91%
12:00 +10°C° 0.8 mm 1 mps 627 mmHg 88%
13:00 +11°C° 0.8 mm 1 mps 628 mmHg 85%
14:00 +10°C° 0.8 mm 2 mps 627 mmHg 85%
15:00 +10°C° 0.8 mm 2 mps 627 mmHg 85%
16:00 +9°C° 0.8 mm 2 mps 627 mmHg 85%
17:00 +10°C° 0.5 mm 1 mps 627 mmHg 88%
18:00 +9°C° 0.5 mm 1 mps 627 mmHg 91%
19:00 +8°C° 0.5 mm 1 mps 627 mmHg 94%
20:00 +7°C° 0 mm 1 mps 627 mmHg 94%
21:00 +5°C° 0 mm 1 mps 627 mmHg 95%
22:00 +4°C° 0 mm 1 mps 626 mmHg 95%
23:00 +4°C° 0 mm 1 mps 626 mmHg 95%

18 July, Saturday

Time Temperature Precipitation Wind Pressure Humidity
00:00 +4°C° 0 mm 1 mps 626 mmHg 95%
01:00 +3°C° 0 mm 1 mps 626 mmHg 95%
02:00 +3°C° 0 mm 1 mps 626 mmHg 95%
03:00 +3°C° 0 mm 1 mps 626 mmHg 95%
04:00 +3°C° 0 mm 1 mps 625 mmHg 95%
05:00 +4°C° 0 mm 1 mps 626 mmHg 94%
06:00 +5°C° 0 mm 0 mps 626 mmHg 92%
07:00 +6°C° 0 mm 0 mps 627 mmHg 91%
08:00 +8°C° 0.2 mm 1 mps 627 mmHg 86%
09:00 +10°C° 0.2 mm 1 mps 628 mmHg 81%
10:00 +11°C° 0.2 mm 1 mps 628 mmHg 77%
11:00 +11°C° 0.5 mm 1 mps 628 mmHg 78%
12:00 +10°C° 0.5 mm 2 mps 628 mmHg 79%
13:00 +12°C° 0.5 mm 2 mps 627 mmHg 81%
14:00 +12°C° 0.4 mm 2 mps 627 mmHg 79%
15:00 +12°C° 0.4 mm 2 mps 627 mmHg 78%
16:00 +12°C° 0.4 mm 1 mps 627 mmHg 76%
17:00 +11°C° 0.1 mm 1 mps 627 mmHg 80%
18:00 +11°C° 0.1 mm 1 mps 627 mmHg 85%
19:00 +10°C° 0.1 mm 1 mps 626 mmHg 89%
20:00 +9°C° 0 mm 1 mps 626 mmHg 91%
21:00 +7°C° 0 mm 1 mps 626 mmHg 93%
22:00 +5°C° 0 mm 0 mps 626 mmHg 96%
23:00 +5°C° 0 mm 0 mps 626 mmHg 95%
Show more